Time,TemperatureF,DewpointF,PressureIn,WindDirection,WindDirectionDegrees,WindSpeedMPH,WindSpeedGustMPH,Humidity,HourlyPrecipIn,Conditions,Clouds,dailyrainin,SoftwareType,DateUTC
2013-02-22 00:00:00,21.2,17.6,30.27,East,100,9.0,11.0,86,0.00,,,0.00,WUHU216DAVISVP2,2013-02-22 05:00:00,
2013-02-22 00:05:00,21.2,17.9,30.26,ESE,118,5.0,11.0,87,0.00,,,0.00,WUHU216DAVISVP2,2013-02-22 05:05:00,
2013-02-22 00:10:00,21.2,17.9,30.25,ESE,113,8.0,15.0,87,0.00,,,0.00,WUHU216DAVISVP2,2013-02-22 05:10:00,
2013-02-22 00:15:00,21.3,18.0,30.26,ESE,114,6.0,15.0,87,0.00,,,0.00,WUHU216DAVISVP2,2013-02-22 05:15:00,
2013-02-22 00:20:00,21.3,18.0,30.26,East,82,8.0,14.0,87,0.00,,,0.00,WUHU216DAVISVP2,2013-02-22 05:20:00,
2013-02-22 00:25:00,21.4,18.1,30.25,SE,139,9.0,14.0,87,0.00,,,0.00,WUHU216DAVISVP2,2013-02-22 05:25:00,
2013-02-22 00:30:00,21.3,18.0,30.23,East,94,9.0,15.0,87,0.00,,,0.00,WUHU216DAVISVP2,2013-02-22 05:30:00,
2013-02-22 00:35:00,21.3,18.3,30.23,ESE,106,9.0,16.0,88,0.00,,,0.00,WUHU216DAVISVP2,2013-02-22 05:35:00,
2013-02-22 00:40:00,21.4,18.4,30.24,East,98,8.0,16.0,88,0.00,,,0.00,WUHU216DAVISVP2,2013-02-22 05:40:00,
2013-02-22 00:45:00,21.5,18.5,30.25,East,101,7.0,17.0,88,0.00,,,0.00,WUHU216DAVISVP2,2013-02-22 05:45:00,
2013-02-22 00:50:00,21.5,18.5,30.25,East,101,10.0,17.0,88,0.00,,,0.00,WUHU216DAVISVP2,2013-02-22 05:50:00,
2013-02-22 00:55:00,21.6,18.6,30.26,SSE,165,2.0,16.0,88,0.00,,,0.00,WUHU216DAVISVP2,2013-02-22 05:55:00,
2013-02-22 01:00:00,21.6,18.6,30.26,ESE,110,8.0,16.0,88,0.00,,,0.00,WUHU216DAVISVP2,2013-02-22 06:00:00,
2013-02-22 01:05:00,21.6,18.6,30.26,ESE,113,5.0,14.0,88,0.00,,,0.00,WUHU216DAVISVP2,2013-02-22 06:05:00,
2013-02-22 01:10:00,21.7,18.7,30.25,ESE,105,10.0,15.0,88,0.00,,,0.00,WUHU216DAVISVP2,2013-02-22 06:10:00,
2013-02-22 01:15:00,21.7,18.7,30.25,East,100,11.0,15.0,88,0.00,,,0.00,WUHU216DAVISVP2,2013-02-22 06:15:00,
2013-02-22 01:20:00,21.7,18.7,30.25,East,86,9.0,15.0,88,0.00,,,0.00,WUHU216DAVISVP2,2013-02-22 06:20:00,
2013-02-22 01:25:00,21.8,18.8,30.25,ESE,103,5.0,15.0,88,0.00,,,0.00,WUHU216DAVISVP2,2013-02-22 06:25:00,
2013-02-22 01:30:00,21.8,18.8,30.25,East,99,5.0,15.0,88,0.00,,,0.00,WUHU216DAVISVP2,2013-02-22 06:30:00,
2013-02-22 01:35:00,21.9,18.8,30.25,East,101,10.0,14.0,88,0.00,,,0.00,WUHU216DAVISVP2,2013-02-22 06:35:00,
2013-02-22 01:40:00,21.9,18.8,30.25,ESE,121,5.0,14.0,88,0.00,,,0.00,WUHU216DAVISVP2,2013-02-22 06:40:00,
2013-02-22 01:45:00,21.9,18.8,30.24,East,92,7.0,13.0,88,0.00,,,0.00,WUHU216DAVISVP2,2013-02-22 06:45:00,
2013-02-22 01:50:00,21.9,18.8,30.24,ESE,115,10.0,16.0,88,0.00,,,0.00,WUHU216DAVISVP2,2013-02-22 06:50:00,
2013-02-22 01:55:00,21.9,18.8,30.24,East,99,10.0,17.0,88,0.00,,,0.00,WUHU216DAVISVP2,2013-02-22 06:55:00,
2013-02-22 02:00:00,21.9,18.9,30.24,East,89,10.0,17.0,88,0.00,,,0.00,WUHU216DAVISVP2,2013-02-22 07:00:00,
2013-02-22 02:06:00,21.9,18.6,30.23,East,85,15.0,17.0,87,0.00,,,0.00,WUHU216DAVISVP2,2013-02-22 07:06:00,
2013-02-22 02:11:00,21.9,18.6,30.23,East,88,12.0,19.0,87,0.00,,,0.00,WUHU216DAVISVP2,2013-02-22 07:11:00,
2013-02-22 02:16:00,21.9,18.6,30.23,ESE,108,8.0,19.0,87,0.00,,,0.00,WUHU216DAVISVP2,2013-02-22 07:16:00,
2013-02-22 02:21:00,21.9,18.6,30.23,ESE,114,11.0,18.0,87,0.00,,,0.00,WUHU216DAVISVP2,2013-02-22 07:21:00,
2013-02-22 02:26:00,21.9,18.6,30.22,ENE,72,9.0,18.0,87,0.00,,,0.00,WUHU216DAVISVP2,2013-02-22 07:26:00,
2013-02-22 02:31:00,21.9,18.6,30.22,SE,125,10.0,18.0,87,0.00,,,0.00,WUHU216DAVISVP2,2013-02-22 07:31:00,
2013-02-22 02:36:00,22.0,18.9,30.22,East,82,12.0,16.0,88,0.00,,,0.00,WUHU216DAVISVP2,2013-02-22 07:36:00,
2013-02-22 02:41:00,22.0,18.9,30.21,ESE,103,10.0,17.0,88,0.00,,,0.00,WUHU216DAVISVP2,2013-02-22 07:41:00,
2013-02-22 02:46:00,22.0,19.0,30.21,East,89,10.0,18.0,88,0.00,,,0.00,WUHU216DAVISVP2,2013-02-22 07:46:00,
2013-02-22 02:51:00,22.1,19.1,30.20,East,94,10.0,18.0,88,0.00,,,0.00,WUHU216DAVISVP2,2013-02-22 07:51:00,
2013-02-22 02:56:00,22.1,19.0,30.20,ESE,109,9.0,18.0,88,0.00,,,0.00,WUHU216DAVISVP2,2013-02-22 07:56:00,
2013-02-22 03:01:00,22.1,19.0,30.19,ESE,117,9.0,18.0,88,0.00,,,0.00,WUHU216DAVISVP2,2013-02-22 08:01:00,
2013-02-22 03:06:00,22.1,19.0,30.19,SE,125,13.0,24.0,88,0.00,,,0.00,WUHU216DAVISVP2,2013-02-22 08:06:00,
2013-02-22 03:11:00,22.1,19.0,30.18,East,98,14.0,24.0,88,0.00,,,0.00,WUHU216DAVISVP2,2013-02-22 08:11:00,
2013-02-22 03:16:00,22.1,19.0,30.17,East,94,7.0,23.0,88,0.00,,,0.00,WUHU216DAVISVP2,2013-02-22 08:16:00,
2013-02-22 03:21:00,22.0,18.9,30.17,ESE,104,13.0,23.0,88,0.00,,,0.00,WUHU216DAVISVP2,2013-02-22 08:21:00,
2013-02-22 03:26:00,22.0,18.9,30.16,East,101,5.0,20.0,88,0.00,,,0.00,WUHU216DAVISVP2,2013-02-22 08:26:00,
2013-02-22 03:31:00,22.0,18.9,30.15,East,98,7.0,20.0,88,0.00,,,0.00,WUHU216DAVISVP2,2013-02-22 08:31:00,
2013-02-22 03:36:00,22.0,18.9,30.15,East,85,10.0,22.0,88,0.00,,,0.00,WUHU216DAVISVP2,2013-02-22 08:36:00,
2013-02-22 03:41:00,21.9,18.8,30.15,ESE,119,16.0,22.0,88,0.00,,,0.00,WUHU216DAVISVP2,2013-02-22 08:41:00,
2013-02-22 03:46:00,21.9,18.6,30.14,East,91,11.0,20.0,87,0.00,,,0.00,WUHU216DAVISVP2,2013-02-22 08:46:00,
2013-02-22 03:51:00,21.9,18.8,30.14,East,94,8.0,20.0,88,0.00,,,0.00,WUHU216DAVISVP2,2013-02-22 08:51:00,
2013-02-22 03:56:00,21.9,18.8,30.13,ESE,104,6.0,17.0,88,0.00,,,0.00,WUHU216DAVISVP2,2013-02-22 08:56:00,
2013-02-22 04:01:00,21.9,18.9,30.13,ESE,104,12.0,18.0,88,0.00,,,0.00,WUHU216DAVISVP2,2013-02-22 09:01:00,
2013-02-22 04:06:00,21.9,18.6,30.13,ENE,68,5.0,18.0,87,0.00,,,0.00,WUHU216DAVISVP2,2013-02-22 09:06:00,
2013-02-22 04:11:00,21.9,18.9,30.12,ESE,102,8.0,18.0,88,0.00,,,0.00,WUHU216DAVISVP2,2013-02-22 09:11:00,
2013-02-22 04:16:00,21.9,18.8,30.11,East,87,7.0,19.0,88,0.00,,,0.00,WUHU216DAVISVP2,2013-02-22 09:16:00,
2013-02-22 04:21:00,21.9,18.8,30.11,East,98,10.0,19.0,88,0.00,,,0.00,WUHU216DAVISVP2,2013-02-22 09:21:00,
2013-02-22 04:26:00,21.9,18.8,30.11,ESE,102,14.0,18.0,88,0.00,,,0.00,WUHU216DAVISVP2,2013-02-22 09:26:00,
2013-02-22 04:31:00,21.9,18.8,30.11,ESE,102,12.0,17.0,88,0.00,,,0.00,WUHU216DAVISVP2,2013-02-22 09:31:00,
2013-02-22 04:36:00,21.9,18.8,30.11,ESE,111,12.0,17.0,88,0.00,,,0.00,WUHU216DAVISVP2,2013-02-22 09:36:00,
2013-02-22 04:41:00,22.0,18.9,30.11,ESE,103,9.0,18.0,88,0.00,,,0.00,WUHU216DAVISVP2,2013-02-22 09:41:00,
2013-02-22 04:46:00,22.0,18.9,30.11,East,97,7.0,18.0,88,0.00,,,0.00,WUHU216DAVISVP2,2013-02-22 09:46:00,
2013-02-22 04:51:00,22.0,18.9,30.11,ESE,102,8.0,18.0,88,0.00,,,0.00,WUHU216DAVISVP2,2013-02-22 09:51:00,
2013-02-22 04:56:00,22.1,19.0,30.11,ESE,112,14.0,17.0,88,0.00,,,0.00,WUHU216DAVISVP2,2013-02-22 09:56:00,
2013-02-22 05:01:00,22.1,19.0,30.10,East,94,3.0,17.0,88,0.00,,,0.00,WUHU216DAVISVP2,2013-02-22 10:01:00,
2013-02-22 05:06:00,22.1,19.0,30.10,East,98,7.0,17.0,88,0.00,,,0.00,WUHU216DAVISVP2,2013-02-22 10:06:00,
2013-02-22 05:11:00,22.1,19.0,30.09,ESE,104,11.0,17.0,88,0.00,,,0.00,WUHU216DAVISVP2,2013-02-22 10:11:00,
2013-02-22 05:16:00,22.2,19.1,30.09,East,91,7.0,16.0,88,0.00,,,0.00,WUHU216DAVISVP2,2013-02-22 10:16:00,
2013-02-22 05:21:00,22.2,19.1,30.09,ENE,73,14.0,16.0,88,0.00,,,0.00,WUHU216DAVISVP2,2013-02-22 10:21:00,
2013-02-22 05:26:00,22.2,19.1,30.10,ESE,102,6.0,15.0,88,0.00,,,0.00,WUHU216DAVISVP2,2013-02-22 10:26:00,
2013-02-22 05:31:00,22.3,19.2,30.09,ENE,71,4.0,14.0,88,0.00,,,0.00,WUHU216DAVISVP2,2013-02-22 10:31:00,
2013-02-22 05:36:00,22.3,19.2,30.10,ESE,110,7.0,14.0,88,0.00,,,0.00,WUHU216DAVISVP2,2013-02-22 10:36:00,
2013-02-22 05:41:00,22.4,19.3,30.11,ESE,110,9.0,14.0,88,0.00,,,0.00,WUHU216DAVISVP2,2013-02-22 10:41:00,
2013-02-22 05:46:00,22.5,19.4,30.11,ESE,119,10.0,13.0,88,0.00,,,0.00,WUHU216DAVISVP2,2013-02-22 10:46:00,
2013-02-22 05:51:00,22.6,19.5,30.10,East,101,6.0,13.0,88,0.00,,,0.00,WUHU216DAVISVP2,2013-02-22 10:51:00,
2013-02-22 05:56:00,22.7,19.6,30.10,East,94,4.0,13.0,88,0.00,,,0.00,WUHU216DAVISVP2,2013-02-22 10:56:00,
2013-02-22 06:01:00,22.8,19.5,30.09,East,100,9.0,13.0,87,0.00,,,0.00,WUHU216DAVISVP2,2013-02-22 11:01:00,
2013-02-22 06:06:00,22.9,19.6,30.08,East,83,7.0,13.0,87,0.00,,,0.00,WUHU216DAVISVP2,2013-02-22 11:06:00,
2013-02-22 06:11:00,22.9,19.6,30.08,East,79,8.0,13.0,87,0.00,,,0.00,WUHU216DAVISVP2,2013-02-22 11:11:00,
2013-02-22 06:16:00,23.1,19.8,30.08,East,86,6.0,12.0,87,0.00,,,0.00,WUHU216DAVISVP2,2013-02-22 11:16:00,
2013-02-22 06:21:00,23.2,19.9,30.07,ENE,69,9.0,15.0,87,0.00,,,0.00,WUHU216DAVISVP2,2013-02-22 11:21:00,
2013-02-22 06:26:00,23.3,19.7,30.06,East,92,10.0,15.0,86,0.00,,,0.00,WUHU216DAVISVP2,2013-02-22 11:26:00,
2013-02-22 06:31:00,23.4,19.8,30.06,SSE,148,8.0,15.0,86,0.00,,,0.00,WUHU216DAVISVP2,2013-02-22 11:31:00,
2013-02-22 06:36:00,23.4,19.8,30.05,SE,125,8.0,15.0,86,0.00,,,0.00,WUHU216DAVISVP2,2013-02-22 11:36:00,
2013-02-22 06:41:00,23.3,19.7,30.05,East,94,7.0,15.0,86,0.00,,,0.00,WUHU216DAVISVP2,2013-02-22 11:41:00,
2013-02-22 06:46:00,23.2,19.9,30.05,East,94,4.0,15.0,87,0.00,,,0.00,WUHU216DAVISVP2,2013-02-22 11:46:00,
2013-02-22 06:51:00,23.2,20.1,30.05,ESE,107,7.0,14.0,88,0.00,,,0.00,WUHU216DAVISVP2,2013-02-22 11:51:00,
2013-02-22 06:56:00,23.0,20.2,30.05,ESE,105,7.0,13.0,89,0.00,,,0.00,WUHU216DAVISVP2,2013-02-22 11:56:00,
2013-02-22 07:01:00,22.9,20.4,30.05,East,94,13.0,15.0,90,0.00,,,0.00,WUHU216DAVISVP2,2013-02-22 12:01:00,
2013-02-22 07:06:00,22.7,20.4,30.05,ESE,122,5.0,15.0,91,0.00,,,0.00,WUHU216DAVISVP2,2013-02-22 12:06:00,
2013-02-22 07:11:00,22.6,20.3,30.04,ESE,112,9.0,15.0,91,0.00,,,0.00,WUHU216DAVISVP2,2013-02-22 12:11:00,
2013-02-22 07:16:00,22.5,20.5,30.04,East,99,5.0,15.0,92,0.00,,,0.00,WUHU216DAVISVP2,2013-02-22 12:16:00,
2013-02-22 07:21:00,22.5,20.5,30.04,East,96,8.0,14.0,92,0.00,,,0.00,WUHU216DAVISVP2,2013-02-22 12:21:00,
2013-02-22 07:26:00,22.4,20.6,30.03,East,95,6.0,15.0,93,0.00,,,0.00,WUHU216DAVISVP2,2013-02-22 12:26:00,
2013-02-22 07:31:00,22.4,20.6,30.03,East,94,9.0,19.0,93,0.00,,,0.00,WUHU216DAVISVP2,2013-02-22 12:31:00,
2013-02-22 07:36:00,22.4,20.7,30.02,East,89,5.0,19.0,93,0.00,,,0.00,WUHU216DAVISVP2,2013-02-22 12:36:00,
2013-02-22 07:41:00,22.3,20.8,30.01,East,94,10.0,17.0,94,0.00,,,0.00,WUHU216DAVISVP2,2013-02-22 12:41:00,
2013-02-22 07:46:00,22.4,20.9,30.01,NNE,30,6.0,19.0,94,0.00,,,0.00,WUHU216DAVISVP2,2013-02-22 12:46:00,
2013-02-22 07:51:00,22.4,20.9,30.01,ESE,105,17.0,19.0,94,0.00,,,0.00,WUHU216DAVISVP2,2013-02-22 12:51:00,
2013-02-22 07:56:00,22.5,21.0,30.00,East,89,9.0,21.0,94,0.00,,,0.00,WUHU216DAVISVP2,2013-02-22 12:56:00,
2013-02-22 08:01:00,22.5,21.0,30.00,East,101,10.0,21.0,94,0.00,,,0.00,WUHU216DAVISVP2,2013-02-22 13:01:00,
2013-02-22 08:06:00,22.5,21.0,30.01,East,89,13.0,19.0,94,0.00,,,0.00,WUHU216DAVISVP2,2013-02-22 13:06:00,
2013-02-22 08:11:00,22.6,21.1,30.01,East,88,10.0,19.0,94,0.00,,,0.00,WUHU216DAVISVP2,2013-02-22 13:11:00,
2013-02-22 08:16:00,22.7,21.4,30.01,ESE,110,7.0,19.0,95,0.00,,,0.00,WUHU216DAVISVP2,2013-02-22 13:16:00,
2013-02-22 08:21:00,22.7,21.4,30.01,ESE,102,11.0,19.0,95,0.00,,,0.00,WUHU216DAVISVP2,2013-02-22 13:21:00,
2013-02-22 08:26:00,22.7,21.4,30.01,East,99,7.0,19.0,95,0.00,,,0.00,WUHU216DAVISVP2,2013-02-22 13:26:00,
2013-02-22 08:31:00,22.8,21.5,30.01,East,99,12.0,19.0,95,0.00,,,0.00,WUHU216DAVISVP2,2013-02-22 13:31:00,
2013-02-22 08:36:00,22.8,21.5,30.01,SE,141,13.0,19.0,95,0.00,,,0.00,WUHU216DAVISVP2,2013-02-22 13:36:00,
2013-02-22 08:41:00,22.8,21.6,30.00,ESE,117,11.0,19.0,95,0.00,,,0.00,WUHU216DAVISVP2,2013-02-22 13:41:00,
2013-02-22 08:46:00,22.8,21.5,30.00,ENE,59,6.0,19.0,95,0.00,,,0.00,WUHU216DAVISVP2,2013-02-22 13:46:00,
2013-02-22 08:51:00,22.8,21.5,30.00,East,94,12.0,21.0,95,0.00,,,0.00,WUHU216DAVISVP2,2013-02-22 13:51:00,
2013-02-22 08:56:00,22.8,21.5,30.00,SE,136,8.0,21.0,95,0.00,,,0.00,WUHU216DAVISVP2,2013-02-22 13:56:00,
2013-02-22 09:01:00,22.8,21.5,30.00,ESE,115,8.0,21.0,95,0.00,,,0.00,WUHU216DAVISVP2,2013-02-22 14:01:00,
2013-02-22 09:06:00,22.8,21.5,30.00,ESE,112,8.0,20.0,95,0.00,,,0.00,WUHU216DAVISVP2,2013-02-22 14:06:00,
2013-02-22 09:11:00,22.8,21.5,30.00,East,90,11.0,18.0,95,0.00,,,0.00,WUHU216DAVISVP2,2013-02-22 14:11:00,
2013-02-22 09:16:00,22.9,21.6,30.00,East,91,8.0,17.0,95,0.00,,,0.00,WUHU216DAVISVP2,2013-02-22 14:16:00,
2013-02-22 09:21:00,22.9,21.7,29.99,East,81,12.0,15.0,95,0.00,,,0.00,WUHU216DAVISVP2,2013-02-22 14:21:00,
2013-02-22 09:26:00,22.9,21.6,30.00,ESE,118,8.0,16.0,95,0.00,,,0.00,WUHU216DAVISVP2,2013-02-22 14:26:00,
2013-02-22 09:31:00,23.0,21.7,30.00,ESE,108,3.0,16.0,95,0.00,,,0.00,WUHU216DAVISVP2,2013-02-22 14:31:00,
2013-02-22 09:36:00,23.1,21.8,29.99,East,89,17.0,17.0,95,0.00,,,0.00,WUHU216DAVISVP2,2013-02-22 14:36:00,
2013-02-22 09:41:00,23.2,21.9,29.99,SE,130,6.0,17.0,95,0.00,,,0.00,WUHU216DAVISVP2,2013-02-22 14:41:00,
2013-02-22 09:46:00,23.4,22.1,29.99,SE,125,11.0,17.0,95,0.00,,,0.00,WUHU216DAVISVP2,2013-02-22 14:46:00,
2013-02-22 09:51:00,23.4,22.1,29.99,ESE,102,12.0,17.0,95,0.00,,,0.00,WUHU216DAVISVP2,2013-02-22 14:51:00,
2013-02-22 09:56:00,23.5,22.2,29.98,East,98,7.0,17.0,95,0.00,,,0.00,WUHU216DAVISVP2,2013-02-22 14:56:00,
2013-02-22 10:01:00,23.6,22.3,29.99,SE,125,6.0,18.0,95,0.00,,,0.00,WUHU216DAVISVP2,2013-02-22 15:01:00,
2013-02-22 10:06:00,23.8,22.5,29.99,ESE,108,11.0,18.0,95,0.00,,,0.00,WUHU216DAVISVP2,2013-02-22 15:06:00,
2013-02-22 10:11:00,23.9,22.6,29.98,ESE,108,12.0,18.0,95,0.00,,,0.00,WUHU216DAVISVP2,2013-02-22 15:11:00,
2013-02-22 10:16:00,24.1,22.8,29.98,East,98,11.0,18.0,95,0.00,,,0.00,WUHU216DAVISVP2,2013-02-22 15:16:00,
2013-02-22 10:21:00,24.2,22.9,29.97,ESE,115,14.0,19.0,95,0.00,,,0.00,WUHU216DAVISVP2,2013-02-22 15:21:00,
2013-02-22 10:26:00,24.4,23.1,29.97,SE,130,12.0,19.0,95,0.00,,,0.00,WUHU216DAVISVP2,2013-02-22 15:26:00,
2013-02-22 10:31:00,24.5,23.2,29.96,ESE,103,8.0,19.0,95,0.00,,,0.00,WUHU216DAVISVP2,2013-02-22 15:31:00,
2013-02-22 10:36:00,24.6,23.1,29.96,ESE,121,7.0,19.0,94,0.00,,,0.00,WUHU216DAVISVP2,2013-02-22 15:36:00,
2013-02-22 10:41:00,24.6,23.1,29.96,East,91,9.0,18.0,94,0.00,,,0.00,WUHU216DAVISVP2,2013-02-22 15:41:00,
2013-02-22 10:46:00,24.8,23.6,29.96,ESE,104,3.0,17.0,95,0.00,,,0.00,WUHU216DAVISVP2,2013-02-22 15:46:00,
2013-02-22 10:51:00,24.9,23.4,29.96,SE,125,13.0,16.0,94,0.00,,,0.00,WUHU216DAVISVP2,2013-02-22 15:51:00,
2013-02-22 10:56:00,25.0,23.5,29.96,ESE,108,12.0,16.0,94,0.00,,,0.00,WUHU216DAVISVP2,2013-02-22 15:56:00,
2013-02-22 11:01:00,25.0,23.5,29.96,ESE,103,8.0,17.0,94,0.00,,,0.00,WUHU216DAVISVP2,2013-02-22 16:01:00,
2013-02-22 11:06:00,25.1,23.6,29.95,SE,124,6.0,17.0,94,0.00,,,0.00,WUHU216DAVISVP2,2013-02-22 16:06:00,
2013-02-22 11:11:00,25.2,23.7,29.95,ESE,107,10.0,17.0,94,0.00,,,0.00,WUHU216DAVISVP2,2013-02-22 16:11:00,
2013-02-22 11:16:00,25.3,23.8,29.96,ESE,109,9.0,17.0,94,0.00,,,0.00,WUHU216DAVISVP2,2013-02-22 16:16:00,
2013-02-22 11:21:00,25.3,23.8,29.95,ESE,111,7.0,15.0,94,0.00,,,0.00,WUHU216DAVISVP2,2013-02-22 16:21:00,
2013-02-22 11:26:00,25.3,23.6,29.96,SE,128,8.0,15.0,93,0.00,,,0.00,WUHU216DAVISVP2,2013-02-22 16:26:00,
2013-02-22 11:31:00,25.4,23.9,29.95,ESE,122,9.0,15.0,94,0.00,,,0.00,WUHU216DAVISVP2,2013-02-22 16:31:00,
2013-02-22 11:36:00,25.4,23.7,29.95,ESE,110,13.0,16.0,93,0.00,,,0.00,WUHU216DAVISVP2,2013-02-22 16:36:00,
2013-02-22 11:41:00,25.5,24.0,29.95,ESE,109,7.0,16.0,94,0.00,,,0.00,WUHU216DAVISVP2,2013-02-22 16:41:00,
2013-02-22 11:47:00,25.6,23.9,29.95,ESE,105,10.0,15.0,93,0.00,,,0.00,WUHU216DAVISVP2,2013-02-22 16:47:00,
2013-02-22 11:52:00,25.7,24.0,29.95,East,91,10.0,15.0,93,0.00,,,0.00,WUHU216DAVISVP2,2013-02-22 16:52:00,
2013-02-22 11:57:00,25.8,24.1,29.94,ESE,112,9.0,14.0,93,0.00,,,0.00,WUHU216DAVISVP2,2013-02-22 16:57:00,
2013-02-22 12:02:00,25.9,24.2,29.94,SE,136,11.0,16.0,93,0.00,,,0.00,WUHU216DAVISVP2,2013-02-22 17:02:00,
2013-02-22 12:07:00,26.1,24.4,29.94,ESE,107,10.0,16.0,93,0.00,,,0.00,WUHU216DAVISVP2,2013-02-22 17:07:00,
2013-02-22 12:12:00,26.2,24.5,29.94,ESE,123,6.0,15.0,93,0.00,,,0.00,WUHU216DAVISVP2,2013-02-22 17:12:00,
2013-02-22 12:17:00,26.3,24.6,29.94,ENE,75,5.0,15.0,93,0.00,,,0.00,WUHU216DAVISVP2,2013-02-22 17:17:00,
2013-02-22 12:22:00,26.5,24.8,29.94,SE,128,5.0,14.0,93,0.00,,,0.00,WUHU216DAVISVP2,2013-02-22 17:22:00,
2013-02-22 12:27:00,26.6,24.8,29.94,SSE,153,8.0,16.0,93,0.00,,,0.00,WUHU216DAVISVP2,2013-02-22 17:27:00,
2013-02-22 12:32:00,26.7,24.9,29.94,ESE,117,9.0,16.0,93,0.00,,,0.00,WUHU216DAVISVP2,2013-02-22 17:32:00,
2013-02-22 12:37:00,26.7,24.9,29.94,East,95,12.0,16.0,93,0.00,,,0.00,WUHU216DAVISVP2,2013-02-22 17:37:00,
2013-02-22 12:42:00,26.7,24.9,29.94,East,85,8.0,16.0,93,0.00,,,0.00,WUHU216DAVISVP2,2013-02-22 17:42:00,
2013-02-22 12:47:00,26.8,25.0,29.94,East,86,6.0,14.0,93,0.00,,,0.00,WUHU216DAVISVP2,2013-02-22 17:47:00,
2013-02-22 12:52:00,26.9,25.4,29.94,East,85,8.0,14.0,94,0.00,,,0.00,WUHU216DAVISVP2,2013-02-22 17:52:00,
2013-02-22 12:57:00,27.0,25.5,29.93,NNE,19,2.0,11.0,94,0.00,,,0.00,WUHU216DAVISVP2,2013-02-22 17:57:00,
2013-02-22 13:02:00,27.1,25.6,29.93,East,99,9.0,14.0,94,0.00,,,0.00,WUHU216DAVISVP2,2013-02-22 18:02:00,
2013-02-22 13:07:00,27.2,25.7,29.93,SE,136,2.0,14.0,94,0.00,,,0.00,WUHU216DAVISVP2,2013-02-22 18:07:00,
2013-02-22 13:12:00,27.3,25.8,29.93,ESE,108,6.0,13.0,94,0.00,,,0.00,WUHU216DAVISVP2,2013-02-22 18:12:00,
2013-02-22 13:17:00,27.4,25.9,29.92,ESE,107,7.0,13.0,94,0.00,,,0.00,WUHU216DAVISVP2,2013-02-22 18:17:00,
2013-02-22 13:22:00,27.5,26.0,29.92,East,89,4.0,12.0,94,0.00,,,0.00,WUHU216DAVISVP2,2013-02-22 18:22:00,
2013-02-22 13:27:00,27.6,26.1,29.92,ESE,113,5.0,9.0,94,0.00,,,0.00,WUHU216DAVISVP2,2013-02-22 18:27:00,
2013-02-22 13:32:00,27.7,26.2,29.91,East,90,8.0,9.0,94,0.00,,,0.00,WUHU216DAVISVP2,2013-02-22 18:32:00,
2013-02-22 13:37:00,27.7,26.2,29.91,ESE,115,4.0,9.0,94,0.00,,,0.00,WUHU216DAVISVP2,2013-02-22 18:37:00,
2013-02-22 13:42:00,27.9,26.4,29.91,NNW,340,2.0,9.0,94,0.00,,,0.00,WUHU216DAVISVP2,2013-02-22 18:42:00,
2013-02-22 13:47:00,28.0,26.5,29.91,ENE,73,0.0,9.0,94,0.00,,,0.00,WUHU216DAVISVP2,2013-02-22 18:47:00,
2013-02-22 13:52:00,28.0,26.5,29.91,NW,315,4.0,10.0,94,0.00,,,0.00,WUHU216DAVISVP2,2013-02-22 18:52:00,
2013-02-22 13:57:00,28.1,26.6,29.91,NNW,333,2.0,10.0,94,0.00,,,0.00,WUHU216DAVISVP2,2013-02-22 18:57:00,
2013-02-22 14:02:00,28.1,26.9,29.92,East,93,5.0,9.0,95,0.00,,,0.00,WUHU216DAVISVP2,2013-02-22 19:02:00,
2013-02-22 14:07:00,28.3,27.1,29.91,East,86,2.0,9.0,95,0.00,,,0.00,WUHU216DAVISVP2,2013-02-22 19:07:00,
2013-02-22 14:12:00,28.3,27.1,29.91,East,84,5.0,7.0,95,0.00,,,0.00,WUHU216DAVISVP2,2013-02-22 19:12:00,
2013-02-22 14:17:00,28.3,27.1,29.91,WNW,301,3.0,9.0,95,0.00,,,0.00,WUHU216DAVISVP2,2013-02-22 19:17:00,
2013-02-22 14:22:00,28.3,27.1,29.91,ESE,103,5.0,9.0,95,0.00,,,0.00,WUHU216DAVISVP2,2013-02-22 19:22:00,
2013-02-22 14:27:00,28.5,27.3,29.91,ENE,69,2.0,9.0,95,0.00,,,0.00,WUHU216DAVISVP2,2013-02-22 19:27:00,
2013-02-22 14:32:00,28.6,27.4,29.91,East,91,2.0,9.0,95,0.00,,,0.00,WUHU216DAVISVP2,2013-02-22 19:32:00,
2013-02-22 14:37:00,28.6,27.4,29.91,East,96,9.0,9.0,95,0.00,,,0.00,WUHU216DAVISVP2,2013-02-22 19:37:00,
2013-02-22 14:42:00,28.7,27.4,29.91,ESE,109,3.0,9.0,95,0.00,,,0.00,WUHU216DAVISVP2,2013-02-22 19:42:00,
2013-02-22 14:47:00,28.8,27.5,29.91,NW,321,2.0,8.0,95,0.00,,,0.00,WUHU216DAVISVP2,2013-02-22 19:47:00,
2013-02-22 14:52:00,28.8,27.5,29.91,ESE,117,7.0,8.0,95,0.00,,,0.00,WUHU216DAVISVP2,2013-02-22 19:52:00,
2013-02-22 14:57:00,28.8,27.5,29.91,ESE,108,2.0,7.0,95,0.00,,,0.00,WUHU216DAVISVP2,2013-02-22 19:57:00,
2013-02-22 15:02:00,28.9,27.6,29.91,ENE,77,2.0,7.0,95,0.00,,,0.00,WUHU216DAVISVP2,2013-02-22 20:02:00,
2013-02-22 15:07:00,29.0,28.0,29.91,SE,144,2.0,7.0,96,0.00,,,0.00,WUHU216DAVISVP2,2013-02-22 20:07:00,
2013-02-22 15:12:00,29.2,28.2,29.91,East,91,2.0,5.0,96,0.00,,,0.00,WUHU216DAVISVP2,2013-02-22 20:12:00,
2013-02-22 15:17:00,29.3,28.3,29.91,East,100,2.0,5.0,96,0.00,,,0.00,WUHU216DAVISVP2,2013-02-22 20:17:00,
2013-02-22 15:22:00,29.4,28.4,29.91,East,91,0.0,5.0,96,0.00,,,0.00,WUHU216DAVISVP2,2013-02-22 20:22:00,
2013-02-22 15:27:00,29.6,28.6,29.91,NNW,334,1.0,6.0,96,0.00,,,0.00,WUHU216DAVISVP2,2013-02-22 20:27:00,
2013-02-22 15:32:00,29.6,28.6,29.91,WNW,295,1.0,6.0,96,0.00,,,0.00,WUHU216DAVISVP2,2013-02-22 20:32:00,
2013-02-22 15:37:00,29.7,28.7,29.91,East,83,0.0,5.0,96,0.00,,,0.00,WUHU216DAVISVP2,2013-02-22 20:37:00,
2013-02-22 15:42:00,29.8,28.8,29.91,WNW,302,0.0,5.0,96,0.00,,,0.00,WUHU216DAVISVP2,2013-02-22 20:42:00,
2013-02-22 15:47:00,29.9,28.9,29.90,East,91,1.0,5.0,96,0.00,,,0.00,WUHU216DAVISVP2,2013-02-22 20:47:00,
2013-02-22 15:52:00,30.0,29.0,29.90,East,81,1.0,4.0,96,0.00,,,0.00,WUHU216DAVISVP2,2013-02-22 20:52:00,
2013-02-22 15:57:00,30.1,29.1,29.90,SSW,212,0.0,4.0,96,0.00,,,0.00,WUHU216DAVISVP2,2013-02-22 20:57:00,
2013-02-22 16:02:00,30.3,29.3,29.91,East,97,0.0,2.0,96,0.00,,,0.00,WUHU216DAVISVP2,2013-02-22 21:02:00,
2013-02-22 16:07:00,30.3,29.3,29.91,NNW,333,0.0,3.0,96,0.00,,,0.00,WUHU216DAVISVP2,2013-02-22 21:07:00,
2013-02-22 16:12:00,30.3,29.3,29.90,West,270,0.0,3.0,96,0.00,,,0.00,WUHU216DAVISVP2,2013-02-22 21:12:00,
2013-02-22 16:17:00,30.4,29.4,29.90,SSE,148,0.0,3.0,96,0.00,,,0.00,WUHU216DAVISVP2,2013-02-22 21:17:00,
2013-02-22 16:22:00,30.4,29.4,29.90,SSW,210,0.0,3.0,96,0.00,,,0.00,WUHU216DAVISVP2,2013-02-22 21:22:00,
2013-02-22 16:27:00,30.4,29.4,29.90,South,170,0.0,3.0,96,0.00,,,0.00,WUHU216DAVISVP2,2013-02-22 21:27:00,
2013-02-22 16:32:00,30.4,29.4,29.90,NNW,336,0.0,3.0,96,0.00,,,0.00,WUHU216DAVISVP2,2013-02-22 21:32:00,
2013-02-22 16:37:00,30.4,29.4,29.90,WNW,298,0.0,3.0,96,0.00,,,0.00,WUHU216DAVISVP2,2013-02-22 21:37:00,
2013-02-22 16:42:00,30.4,29.4,29.90,SW,233,2.0,2.0,96,0.00,,,0.00,WUHU216DAVISVP2,2013-02-22 21:42:00,
2013-02-22 16:47:00,30.4,29.4,29.90,West,269,0.0,3.0,96,0.00,,,0.00,WUHU216DAVISVP2,2013-02-22 21:47:00,
2013-02-22 16:52:00,30.5,29.5,29.90,WNW,293,0.0,3.0,96,0.00,,,0.00,WUHU216DAVISVP2,2013-02-22 21:52:00,
2013-02-22 16:57:00,30.5,29.5,29.90,NW,319,1.0,3.0,96,0.00,,,0.00,WUHU216DAVISVP2,2013-02-22 21:57:00,
2013-02-22 17:02:00,30.5,29.5,29.90,North,358,0.0,3.0,96,0.00,,,0.00,WUHU216DAVISVP2,2013-02-22 22:02:00,
2013-02-22 17:07:00,30.5,29.5,29.90,WSW,253,0.0,3.0,96,0.00,,,0.00,WUHU216DAVISVP2,2013-02-22 22:07:00,
2013-02-22 17:12:00,30.6,29.8,29.90,East,82,1.0,3.0,97,0.00,,,0.00,WUHU216DAVISVP2,2013-02-22 22:12:00,
2013-02-22 17:17:00,30.6,29.8,29.90,West,260,0.0,3.0,97,0.00,,,0.00,WUHU216DAVISVP2,2013-02-22 22:17:00,
2013-02-22 17:22:00,30.6,29.8,29.90,West,267,2.0,4.0,97,0.00,,,0.00,WUHU216DAVISVP2,2013-02-22 22:22:00,
2013-02-22 17:27:00,30.6,29.8,29.90,West,267,2.0,4.0,97,0.00,,,0.00,WUHU216DAVISVP2,2013-02-22 22:27:00,
2013-02-22 17:32:00,30.6,29.8,29.90,South,187,0.0,4.0,97,0.00,,,0.00,WUHU216DAVISVP2,2013-02-22 22:32:00,
2013-02-22 17:37:00,30.6,29.8,29.90,SSW,207,1.0,5.0,97,0.00,,,0.00,WUHU216DAVISVP2,2013-02-22 22:37:00,
2013-02-22 17:42:00,30.6,29.8,29.90,WSW,250,0.0,5.0,97,0.00,,,0.00,WUHU216DAVISVP2,2013-02-22 22:42:00,
2013-02-22 17:47:00,30.6,29.8,29.90,NW,319,1.0,5.0,97,0.00,,,0.00,WUHU216DAVISVP2,2013-02-22 22:47:00,
2013-02-22 17:52:00,30.6,29.8,29.90,WNW,287,0.0,5.0,97,0.00,,,0.00,WUHU216DAVISVP2,2013-02-22 22:52:00,
2013-02-22 17:57:00,30.6,29.9,29.91,WSW,250,0.0,3.0,97,0.00,,,0.00,WUHU216DAVISVP2,2013-02-22 22:57:00,
2013-02-22 18:02:00,30.7,29.9,29.91,SE,142,1.0,4.0,97,0.00,,,0.00,WUHU216DAVISVP2,2013-02-22 23:02:00,
2013-02-22 18:07:00,30.7,29.9,29.91,SW,218,0.0,4.0,97,0.00,,,0.00,WUHU216DAVISVP2,2013-02-22 23:07:00,
2013-02-22 18:12:00,30.7,29.9,29.91,SW,217,1.0,5.0,97,0.00,,,0.00,WUHU216DAVISVP2,2013-02-22 23:12:00,
2013-02-22 18:17:00,30.8,30.0,29.91,SW,221,3.0,5.0,97,0.00,,,0.00,WUHU216DAVISVP2,2013-02-22 23:17:00,
2013-02-22 18:22:00,30.8,30.0,29.91,SSW,197,1.0,5.0,97,0.00,,,0.00,WUHU216DAVISVP2,2013-02-22 23:22:00,
2013-02-22 18:27:00,30.8,30.0,29.91,ENE,68,0.0,5.0,97,0.00,,,0.00,WUHU216DAVISVP2,2013-02-22 23:27:00,
2013-02-22 18:32:00,30.8,30.0,29.91,West,271,1.0,4.0,97,0.00,,,0.00,WUHU216DAVISVP2,2013-02-22 23:32:00,
2013-02-22 18:37:00,30.8,30.0,29.91,WSW,243,0.0,6.0,97,0.00,,,0.00,WUHU216DAVISVP2,2013-02-22 23:37:00,
2013-02-22 18:42:00,30.9,30.1,29.91,WSW,253,1.0,6.0,97,0.00,,,0.00,WUHU216DAVISVP2,2013-02-22 23:42:00,
2013-02-22 18:47:00,30.9,30.1,29.91,ENE,66,1.0,6.0,97,0.00,,,0.00,WUHU216DAVISVP2,2013-02-22 23:47:00,
2013-02-22 18:52:00,30.9,30.1,29.91,West,274,0.0,6.0,97,0.00,,,0.00,WUHU216DAVISVP2,2013-02-22 23:52:00,
2013-02-22 18:57:00,31.0,30.2,29.91,West,263,1.0,5.0,97,0.00,,,0.00,WUHU216DAVISVP2,2013-02-22 23:57:00,
2013-02-22 19:02:00,31.0,30.5,29.92,South,190,0.0,5.0,98,0.00,,,0.00,WUHU216DAVISVP2,2013-02-23 00:02:00,
2013-02-22 19:07:00,31.0,30.5,29.92,SSW,207,1.0,4.0,98,0.00,,,0.00,WUHU216DAVISVP2,2013-02-23 00:07:00,
2013-02-22 19:12:00,31.2,30.7,29.92,ENE,63,0.0,4.0,98,0.00,,,0.00,WUHU216DAVISVP2,2013-02-23 00:12:00,
2013-02-22 19:17:00,31.2,30.7,29.92,SW,219,0.0,4.0,98,0.00,,,0.00,WUHU216DAVISVP2,2013-02-23 00:17:00,
2013-02-22 19:22:00,31.3,30.8,29.92,NW,319,0.0,3.0,98,0.00,,,0.00,WUHU216DAVISVP2,2013-02-23 00:22:00,
2013-02-22 19:27:00,31.3,30.8,29.92,SSE,150,3.0,5.0,98,0.00,,,0.00,WUHU216DAVISVP2,2013-02-23 00:27:00,
2013-02-22 19:32:00,31.4,30.9,29.92,West,260,1.0,5.0,98,0.00,,,0.00,WUHU216DAVISVP2,2013-02-23 00:32:00,
2013-02-22 19:37:00,31.6,31.1,29.91,SSE,167,3.0,7.0,98,0.00,,,0.00,WUHU216DAVISVP2,2013-02-23 00:37:00,
2013-02-22 19:42:00,31.7,31.2,29.91,SSW,193,1.0,7.0,98,0.00,,,0.00,WUHU216DAVISVP2,2013-02-23 00:42:00,
2013-02-22 19:47:00,31.8,31.3,29.91,WSW,256,1.0,6.0,98,0.00,,,0.00,WUHU216DAVISVP2,2013-02-23 00:47:00,
2013-02-22 19:52:00,31.8,31.3,29.91,WSW,257,1.0,6.0,98,0.00,,,0.00,WUHU216DAVISVP2,2013-02-23 00:52:00,
2013-02-22 19:57:00,31.9,31.4,29.91,SE,125,4.0,6.0,98,0.00,,,0.00,WUHU216DAVISVP2,2013-02-23 00:57:00,
2013-02-22 20:02:00,32.0,31.5,29.91,SW,220,2.0,6.0,98,0.00,,,0.00,WUHU216DAVISVP2,2013-02-23 01:02:00,
2013-02-22 20:07:00,32.1,31.6,29.91,SW,215,0.0,6.0,98,0.00,,,0.00,WUHU216DAVISVP2,2013-02-23 01:07:00,
2013-02-22 20:12:00,32.2,31.7,29.91,SE,136,1.0,6.0,98,0.00,,,0.00,WUHU216DAVISVP2,2013-02-23 01:12:00,
2013-02-22 20:17:00,32.2,31.7,29.91,SSE,162,3.0,8.0,98,0.00,,,0.00,WUHU216DAVISVP2,2013-02-23 01:17:00,
2013-02-22 20:22:00,32.3,31.8,29.91,WSW,255,2.0,8.0,98,0.00,,,0.00,WUHU216DAVISVP2,2013-02-23 01:22:00,
2013-02-22 20:27:00,32.3,31.8,29.91,WSW,252,1.0,9.0,98,0.00,,,0.00,WUHU216DAVISVP2,2013-02-23 01:27:00,
2013-02-22 20:32:00,32.4,31.9,29.91,SSE,157,3.0,9.0,98,0.00,,,0.00,WUHU216DAVISVP2,2013-02-23 01:32:00,
2013-02-22 20:37:00,32.4,31.9,29.91,SW,236,5.0,8.0,98,0.00,,,0.00,WUHU216DAVISVP2,2013-02-23 01:37:00,
2013-02-22 20:42:00,32.5,32.0,29.90,SSW,207,1.0,8.0,98,0.00,,,0.00,WUHU216DAVISVP2,2013-02-23 01:42:00,
2013-02-22 20:48:00,32.5,32.0,29.91,SW,224,4.0,7.0,98,0.00,,,0.00,WUHU216DAVISVP2,2013-02-23 01:48:00,
2013-02-22 20:53:00,32.6,32.1,29.91,SW,214,5.0,7.0,98,0.00,,,0.00,WUHU216DAVISVP2,2013-02-23 01:53:00,
2013-02-22 20:58:00,32.6,32.1,29.91,WSW,256,4.0,8.0,98,0.00,,,0.00,WUHU216DAVISVP2,2013-02-23 01:58:00,
2013-02-22 21:04:00,32.6,32.1,29.91,WSW,239,2.0,7.0,98,0.00,,,0.00,WUHU216DAVISVP2,2013-02-23 02:04:00,
2013-02-22 21:09:00,32.7,32.2,29.91,WSW,252,4.0,9.0,98,0.00,,,0.00,WUHU216DAVISVP2,2013-02-23 02:09:00,
2013-02-22 21:15:00,32.7,32.2,29.91,SW,228,4.0,9.0,98,0.00,,,0.00,WUHU216DAVISVP2,2013-02-23 02:15:00,
2013-02-22 21:20:00,32.7,32.2,29.91,SW,229,3.0,8.0,98,0.00,,,0.00,WUHU216DAVISVP2,2013-02-23 02:20:00,
2013-02-22 21:25:00,32.7,32.2,29.91,SW,232,3.0,8.0,98,0.00,,,0.00,WUHU216DAVISVP2,2013-02-23 02:25:00,
2013-02-22 21:30:00,32.7,32.2,29.91,SW,226,3.0,7.0,98,0.00,,,0.00,WUHU216DAVISVP2,2013-02-23 02:30:00,
2013-02-22 21:35:00,32.8,32.3,29.91,WSW,242,5.0,7.0,98,0.00,,,0.00,WUHU216DAVISVP2,2013-02-23 02:35:00,
2013-02-22 21:40:00,32.8,32.0,29.91,WNW,293,1.0,7.0,97,0.00,,,0.00,WUHU216DAVISVP2,2013-02-23 02:40:00,
2013-02-22 21:45:00,32.8,32.0,29.91,SSW,205,3.0,6.0,97,0.00,,,0.00,WUHU216DAVISVP2,2013-02-23 02:45:00,
2013-02-22 21:50:00,32.8,32.0,29.91,WSW,246,6.0,7.0,97,0.00,,,0.00,WUHU216DAVISVP2,2013-02-23 02:50:00,
2013-02-22 21:55:00,32.8,32.0,29.91,WNW,293,0.0,7.0,97,0.00,,,0.00,WUHU216DAVISVP2,2013-02-23 02:55:00,
2013-02-22 22:00:00,32.9,32.1,29.91,WSW,256,1.0,6.0,97,0.00,,,0.00,WUHU216DAVISVP2,2013-02-23 03:00:00,
2013-02-22 22:05:00,32.9,32.1,29.91,WSW,256,3.0,9.0,97,0.00,,,0.00,WUHU216DAVISVP2,2013-02-23 03:05:00,
2013-02-22 22:10:00,32.9,32.1,29.91,SW,226,5.0,9.0,97,0.00,,,0.00,WUHU216DAVISVP2,2013-02-23 03:10:00,
2013-02-22 22:15:00,32.9,32.1,29.91,SSW,195,2.0,8.0,97,0.00,,,0.00,WUHU216DAVISVP2,2013-02-23 03:15:00,
2013-02-22 22:20:00,32.9,32.1,29.91,SSW,207,2.0,9.0,97,0.00,,,0.00,WUHU216DAVISVP2,2013-02-23 03:20:00,
2013-02-22 22:25:00,33.0,32.2,29.91,SW,233,6.0,10.0,97,0.00,,,0.00,WUHU216DAVISVP2,2013-02-23 03:25:00,
2013-02-22 22:30:00,32.9,31.8,29.91,SW,229,4.0,10.0,96,0.00,,,0.00,WUHU216DAVISVP2,2013-02-23 03:30:00,
2013-02-22 22:35:00,32.9,31.8,29.91,SW,219,5.0,9.0,96,0.00,,,0.00,WUHU216DAVISVP2,2013-02-23 03:35:00,
2013-02-22 22:40:00,32.8,31.7,29.91,SW,232,3.0,9.0,96,0.00,,,0.00,WUHU216DAVISVP2,2013-02-23 03:40:00,
2013-02-22 22:45:00,32.8,31.7,29.91,WSW,241,5.0,8.0,96,0.00,,,0.00,WUHU216DAVISVP2,2013-02-23 03:45:00,
2013-02-22 22:50:00,32.8,31.5,29.91,SW,232,6.0,10.0,95,0.00,,,0.00,WUHU216DAVISVP2,2013-02-23 03:50:00,
2013-02-22 22:55:00,32.8,31.5,29.91,SW,229,4.0,10.0,95,0.00,,,0.00,WUHU216DAVISVP2,2013-02-23 03:55:00,
2013-02-22 23:00:00,32.7,31.4,29.90,SW,226,3.0,10.0,95,0.00,,,0.00,WUHU216DAVISVP2,2013-02-23 04:00:00,
2013-02-22 23:05:00,32.7,31.4,29.91,SW,214,5.0,10.0,95,0.00,,,0.00,WUHU216DAVISVP2,2013-02-23 04:05:00,
2013-02-22 23:10:00,32.7,31.1,29.91,SW,236,1.0,10.0,94,0.00,,,0.00,WUHU216DAVISVP2,2013-02-23 04:10:00,
2013-02-22 23:15:00,32.7,31.1,29.91,West,262,2.0,10.0,94,0.00,,,0.00,WUHU216DAVISVP2,2013-02-23 04:15:00,
2013-02-22 23:20:00,32.6,30.8,29.91,SW,233,5.0,9.0,93,0.00,,,0.00,WUHU216DAVISVP2,2013-02-23 04:20:00,
2013-02-22 23:25:00,32.6,30.8,29.90,SW,224,5.0,9.0,93,0.00,,,0.00,WUHU216DAVISVP2,2013-02-23 04:25:00,
2013-02-22 23:30:00,32.5,30.7,29.90,SSW,210,2.0,9.0,93,0.00,,,0.00,WUHU216DAVISVP2,2013-02-23 04:30:00,
2013-02-22 23:35:00,32.5,30.4,29.90,WSW,244,5.0,9.0,92,0.00,,,0.00,WUHU216DAVISVP2,2013-02-23 04:35:00,
2013-02-22 23:40:00,32.5,30.4,29.90,WSW,253,4.0,8.0,92,0.00,,,0.00,WUHU216DAVISVP2,2013-02-23 04:40:00,
2013-02-22 23:45:00,32.4,30.3,29.90,SW,219,4.0,7.0,92,0.00,,,0.00,WUHU216DAVISVP2,2013-02-23 04:45:00,
2013-02-22 23:50:00,32.4,30.3,29.90,SW,219,1.0,9.0,92,0.00,,,0.00,WUHU216DAVISVP2,2013-02-23 04:50:00,
2013-02-22 23:55:00,32.4,30.3,29.90,SW,224,4.0,9.0,92,0.00,,,0.00,WUHU216DAVISVP2,2013-02-23 04:55:00,